Change the Weather History Date:

Monday, November 4, 2013

  Actual Average Record
Temperature  
Mean Temperature 60 °F -  
Max Temperature 75 °F 71 °F 86 °F (1983)
Min Temperature 44 °F 46 °F 24 °F (1991)
Degree Days  
Heating Degree Days 6    
Growing Degree Days 10 (Base 50)    
Moisture  
Dew Point 52 °F    
Average Humidity 78    
Maximum Humidity 100    
Minimum Humidity 52    
Precipitation  
Precipitation 0.00 in - - ()
Sea Level Pressure  
Sea Level Pressure 30.14 in    
Wind  
Wind Speed 3 mph (SE)    
Max Wind Speed 14 mph    
Max Gust Speed 18 mph    
Visibility 10 miles    
Events      
Averages and records for this station are not official NWS values.
T = Trace of Precipitation, MM = Missing Value Source: NWS Daily Summary

Daily Weather History Graph

Daily Weather History Graph

Search for Another Location

Airport or City:

Trip Planner

Search our weather history database for the weather conditions in past years. The results will help you decide how hot, cold, wet, or windy it might be!

Date:

Astronomy

Nov. 04, 2013 Rise Set
Actual Time 6:31 AM CST 5:20 PM CST
Civil Twilight 6:06 AM CST 5:45 PM CST
Nautical Twilight 5:37 AM CST 6:14 PM CST
Astronomical Twilight 5:08 AM CST 6:43 PM CST
Moon 7:38 AM CST (11/4) 6:29 PM CST (11/4)
Length of Visible Light 11h 39m
Length of Day
10h 48m
New Moon, 2% of the Moon is Illuminated
Nov 4
New Moon
Nov 9
First Quarter
Nov 17
Full
Nov 25
Last Quarter
Dec 2
New

Hourly Weather History & Observations

Time (CST) Temp. Dew Point Humidity Pressure Visibility Wind Dir Wind Speed Gust Speed Precip Events Conditions
12:15 AM 46.6 °F 46.4 °F 99% 30.16 in 10.0 mi Calm Calm - N/A   Clear
12:35 AM 46.9 °F 46.4 °F 98% 30.15 in 10.0 mi Calm Calm - N/A   Clear
12:55 AM 46.4 °F 45.9 °F 98% 30.15 in 10.0 mi Calm Calm - N/A   Clear
1:15 AM 46.4 °F 45.9 °F 98% 30.15 in 10.0 mi Calm Calm - N/A   Clear
1:35 AM 46.4 °F 45.9 °F 98% 30.14 in 10.0 mi Calm Calm - N/A   Clear
1:55 AM 45.9 °F 45.5 °F 99% 30.13 in 10.0 mi Calm Calm - N/A   Clear
2:15 AM 44.8 °F 44.4 °F 99% 30.13 in 10.0 mi Calm Calm - N/A   Clear
2:35 AM 44.8 °F 44.8 °F 100% 30.14 in 10.0 mi Calm Calm - N/A   Clear
2:55 AM 44.6 °F 44.4 °F 99% 30.14 in 10.0 mi Calm Calm - N/A   Clear
3:15 AM 44.8 °F 44.6 °F 99% 30.13 in 10.0 mi Calm Calm - N/A   Clear
3:35 AM 46.4 °F 45.9 °F 98% 30.13 in 10.0 mi Calm Calm - N/A   Clear
3:55 AM 45.5 °F 45.3 °F 99% 30.14 in 10.0 mi Calm Calm - N/A   Clear
4:15 AM 46.0 °F 45.9 °F 99% 30.14 in 10.0 mi Calm Calm - N/A   Clear
4:35 AM 46.4 °F 46.0 °F 99% 30.13 in 10.0 mi Calm Calm - N/A   Clear
4:55 AM 45.7 °F 45.5 °F 99% 30.14 in 10.0 mi Calm Calm - N/A   Clear
5:15 AM 45.5 °F 45.1 °F 99% 30.15 in 10.0 mi Calm Calm - N/A   Clear
5:35 AM 46.4 °F 46.2 °F 99% 30.15 in 10.0 mi Calm Calm - N/A   Clear
5:55 AM 45.9 °F 45.5 °F 99% 30.15 in 10.0 mi Calm Calm - N/A   Clear
6:15 AM 45.7 °F 45.5 °F 99% 30.15 in 10.0 mi Calm Calm - N/A   Clear
6:35 AM 45.1 °F 45.0 °F 99% 30.15 in 7.0 mi Calm Calm - N/A   Clear
6:55 AM 46.2 °F 46.0 °F 99% 30.16 in 10.0 mi Calm Calm - N/A   Clear
7:15 AM 48.2 °F 46.8 °F 95% 30.16 in 10.0 mi Calm Calm - N/A   Clear
7:35 AM 50.4 °F 48.2 °F 92% 30.18 in 10.0 mi Calm Calm - N/A   Clear
7:55 AM 51.1 °F 48.4 °F 90% 30.18 in 10.0 mi ESE 4.6 mph - N/A   Clear
8:15 AM 51.6 °F 48.6 °F 89% 30.18 in 10.0 mi Calm Calm - N/A   Clear
8:35 AM 52.5 °F 49.1 °F 88% 30.18 in 10.0 mi ESE 4.6 mph - N/A   Clear
8:55 AM 56.5 °F 51.3 °F 83% 30.19 in 10.0 mi SE 5.8 mph - N/A   Clear
9:15 AM 59.4 °F 51.8 °F 76% 30.19 in 10.0 mi SE 11.5 mph - N/A   Clear
9:35 AM 60.1 °F 51.6 °F 74% 30.19 in 10.0 mi SE 9.2 mph 18.4 mph N/A   Clear
9:55 AM 61.0 °F 52.5 °F 74% 30.20 in 10.0 mi SE 6.9 mph - N/A   Mostly Cloudy
10:15 AM 63.0 °F 53.4 °F 71% 30.20 in 10.0 mi SE 6.9 mph - N/A   Scattered Clouds
10:35 AM 65.5 °F 54.0 °F 66% 30.20 in 10.0 mi SSE 9.2 mph - N/A   Clear
10:55 AM 67.8 °F 54.7 °F 63% 30.20 in 10.0 mi SE 9.2 mph - N/A   Scattered Clouds
11:15 AM 69.4 °F 54.7 °F 59% 30.20 in 10.0 mi SSE 9.2 mph - N/A   Mostly Cloudy
11:35 AM 70.0 °F 55.2 °F 59% 30.18 in 10.0 mi SE 11.5 mph - N/A   Overcast
11:55 AM 70.9 °F 55.2 °F 58% 30.17 in 10.0 mi SE 13.8 mph 17.3 mph N/A   Scattered Clouds
12:15 PM 70.7 °F 55.2 °F 58% 30.16 in 10.0 mi SE 10.4 mph - N/A   Mostly Cloudy
12:35 PM 72.1 °F 56.7 °F 58% 30.15 in 10.0 mi SSE 10.4 mph - N/A   Mostly Cloudy
12:55 PM 73.0 °F 55.8 °F 55% 30.14 in 10.0 mi SSE 11.5 mph - N/A   Scattered Clouds
1:15 PM 73.8 °F 57.6 °F 57% 30.13 in 10.0 mi SSE 9.2 mph - N/A   Clear
1:35 PM 74.3 °F 56.5 °F 54% 30.13 in 10.0 mi SE 9.2 mph - N/A   Clear
1:55 PM 73.2 °F 55.8 °F 54% 30.12 in 10.0 mi SE 10.4 mph - N/A   Clear
2:15 PM 75.0 °F 56.5 °F 52% 30.11 in 10.0 mi SE 8.1 mph - N/A   Clear
2:35 PM 72.9 °F 55.6 °F 55% 30.12 in 10.0 mi ESE 10.4 mph - N/A   Clear
2:55 PM 73.6 °F 55.6 °F 53% 30.12 in 10.0 mi SSE 10.4 mph 16.1 mph N/A   Clear
3:15 PM 72.5 °F 55.8 °F 56% 30.11 in 10.0 mi SE 10.4 mph - N/A   Clear
3:35 PM 72.1 °F 56.1 °F 57% 30.11 in 10.0 mi SE 9.2 mph - N/A   Clear
3:55 PM 71.6 °F 55.9 °F 58% 30.11 in 10.0 mi SE 8.1 mph - N/A   Clear
4:15 PM 71.1 °F 56.5 °F 60% 30.11 in 10.0 mi SE 6.9 mph - N/A   Clear
4:35 PM 70.7 °F 56.7 °F 61% 30.11 in 10.0 mi SE 6.9 mph - N/A   Clear
4:55 PM 70.0 °F 56.5 °F 62% 30.11 in 10.0 mi SE 6.9 mph - N/A   Clear
5:15 PM 68.7 °F 56.7 °F 65% 30.11 in 10.0 mi ESE 5.8 mph - N/A   Clear
5:35 PM 68.0 °F 56.8 °F 67% 30.11 in 10.0 mi ESE 8.1 mph - N/A   Clear
5:55 PM 67.8 °F 56.7 °F 67% 30.11 in 10.0 mi ESE 6.9 mph - N/A   Clear
6:15 PM 67.1 °F 57.4 °F 71% 30.11 in 10.0 mi SE 5.8 mph - N/A   Clear
6:35 PM 66.7 °F 56.8 °F 70% 30.12 in 10.0 mi ESE 8.1 mph - N/A   Clear
6:55 PM 66.6 °F 55.9 °F 69% 30.12 in 10.0 mi SE 8.1 mph - N/A   Clear
7:15 PM 66.6 °F 55.8 °F 68% 30.12 in 10.0 mi SE 5.8 mph - N/A   Clear
7:35 PM 66.0 °F 55.9 °F 70% 30.13 in 10.0 mi SE 4.6 mph - N/A   Clear
7:55 PM 65.1 °F 55.9 °F 72% 30.13 in 10.0 mi East 3.5 mph - N/A   Clear
8:15 PM 64.4 °F 56.3 °F 75% 30.13 in 10.0 mi East 3.5 mph - N/A   Clear
8:35 PM 63.5 °F 56.1 °F 77% 30.13 in 10.0 mi East 3.5 mph - N/A   Clear
8:55 PM 62.8 °F 55.9 °F 78% 30.14 in 10.0 mi Calm Calm - N/A   Clear
9:15 PM 62.6 °F 56.1 °F 79% 30.14 in 10.0 mi ESE 3.5 mph - N/A   Clear
9:35 PM 62.8 °F 56.5 °F 80% 30.14 in 10.0 mi ESE 5.8 mph - N/A   Clear
9:55 PM 63.0 °F 56.5 °F 79% 30.14 in 10.0 mi SE 3.5 mph - N/A   Clear
10:15 PM 63.5 °F 56.7 °F 78% 30.14 in 10.0 mi SE 8.1 mph - N/A   Clear
10:35 PM 63.3 °F 56.8 °F 79% 30.14 in 10.0 mi SE 6.9 mph - N/A   Clear
10:55 PM 63.7 °F 57.2 °F 79% 30.14 in 10.0 mi SE 8.1 mph - N/A   Clear
11:15 PM 63.5 °F 57.2 °F 80% 30.14 in 10.0 mi SE 9.2 mph - N/A   Clear
11:35 PM 63.5 °F 57.4 °F 80% 30.14 in 10.0 mi SE 9.2 mph - N/A   Clear
11:55 PM 63.1 °F 57.6 °F 82% 30.14 in 10.0 mi SE 8.1 mph - N/A   Clear